EW1931 Weather Reports


time (UTC)temp
C
wind
direction
speed
KPH
gust
KPH
rain 1hr
cm
rain 24hr
cm
rain mn
cm
humidity
%
barometer
mb
20260906193044 18 42 17.7 29.0 0.00 0.00 0.00 69 1011.7
20260906191519 18 27 17.7 32.2 0.00 0.00 0.00 70 1011.8
20260906190011 18 24 25.7 37.0 0.00 0.00 0.00 70 1011.8
20260906184551 17 18 27.4 43.5 0.00 0.00 0.00 74 1011.9
20260906183047 16 5 30.6 38.6 0.00 0.00 0.00 76 1012.2
20260906181541 15 360 22.5 35.4 0.00 0.00 0.00 79 1012.9
20260906180032 15 331 25.7 38.6 0.00 0.00 0.00 80 1013.0
20260906174505 15 317 29.0 37.0 0.00 0.00 0.00 82 1013.2
20260906173003 15 11 19.3 30.6 0.00 0.00 0.00 86 1013.3
20260906171603 14 313 19.3 30.6 0.00 0.00 0.00 87 1013.3
20260906170055 15 360 14.5 22.5 0.00 0.00 0.00 87 1013.3
20260906164545 15 338 12.9 19.3 0.00 0.00 0.00 87 1013.3
20260906163039 15 338 12.9 17.7 0.00 0.00 0.00 86 1013.2
20260906161538 15 23 8.0 16.1 0.00 0.00 0.00 87 1013.4
20260906160038 15 40 8.0 17.7 0.00 0.00 0.00 87 1013.4
20260906154542 15 5 11.3 16.1 0.00 0.00 0.00 87 1013.6
20260906153038 15 30 12.9 17.7 0.00 0.00 0.00 88 1013.6
20260906151518 15 40 14.5 20.9 0.00 0.00 0.00 87 1013.8
20260906150018 15 30 17.7 24.1 0.00 0.00 0.00 87 1013.8
20260906144611 15 47 24.1 32.2 0.00 0.00 0.00 87 1013.5
20260906143109 15 49 25.7 32.2 0.00 0.00 0.00 86 1013.5
20260906141539 15 38 22.5 29.0 0.00 0.00 0.00 86 1013.8
20260906140039 14 46 12.9 17.7 0.00 0.00 0.00 87 1014.2
20260906134528 14 21 12.9 19.3 0.00 0.00 0.00 88 1014.0
20260906133021 14 17 12.9 20.9 0.00 0.00 0.00 89 1014.0
20260906131509 13 360 16.1 24.1 0.00 0.00 0.00 89 1013.9
20260906130003 13 13 14.5 19.3 0.00 0.00 0.00 90 1014.5
20260906124546 13 5 11.3 22.5 0.00 0.00 0.00 91 1014.3
20260906123045 13 327 16.1 24.1 0.00 0.03 0.00 92 1013.9
20260906121526 12 24 17.7 22.5 0.00 0.03 0.00 92 1014.0
20260906120026 12 12 19.3 25.7 0.00 0.03 0.00 92 1013.8
20260906114525 12 13 19.3 27.4 0.00 0.03 0.00 92 1013.7
20260906113009 12 15 19.3 29.0 0.00 0.03 0.00 92 1013.9
20260906111551 12 12 19.3 25.7 0.00 0.03 0.00 91 1014.0
20260906110051 12 17 19.3 25.7 0.00 0.03 0.00 91 1013.9
20260906104535 12 360 19.3 29.0 0.00 0.03 0.00 91 1013.9
20260906103034 12 13 24.1 38.6 0.00 0.03 0.00 90 1014.1
20260906101512 12 13 25.7 37.0 0.00 0.03 0.00 90 1014.1
20260906100013 12 22 25.7 37.0 0.00 0.03 0.00 89 1014.1
20260906094616 12 19 27.4 40.2 0.00 0.03 0.00 89 1013.9
20260906093119 12 10 27.4 38.6 0.00 0.03 0.00 89 1014.0
20260906091548 12 314 25.7 40.2 0.00 0.03 0.00 88 1014.0
20260906090032 12 5 29.0 38.6 0.00 0.03 0.00 88 1014.2
20260906084528 12 15 25.7 37.0 0.00 0.03 0.00 87 1014.3
20260906083010 12 315 25.7 37.0 0.00 0.03 0.00 87 1014.4
20260906081513 12 13 25.7 35.4 0.00 0.03 0.00 86 1014.6
20260906080049 13 360 30.6 38.6 0.00 0.03 0.00 85 1014.5
20260906074548 13 360 25.7 37.0 0.00 0.03 0.00 84 1014.8
20260906073036 13 24 27.4 38.6 0.00 0.03 0.00 84 1014.9
20260906071532 13 12 29.0 40.2 0.00 0.03 0.00 83 1015.1
20260906070033 13 360 29.0 35.4 0.00 0.03 0.00 82 1015.3
20260906064531 13 5 25.7 40.2 0.00 0.03 0.00 82 1015.5
20260906063034 13 15 29.0 40.2 0.00 0.03 0.00 82 1015.7
20260906061530 13 12 27.4 35.4 0.00 0.03 0.00 82 1015.6
20260906060027 13 20 25.7 35.4 0.00 0.03 0.00 81 1015.7
20260906054524 14 9 25.7 37.0 0.00 0.03 0.00 80 1015.8
20260906053009 14 16 27.4 38.6 0.00 0.03 0.00 79 1015.6
20260906051504 14 15 27.4 37.0 0.00 0.03 0.00 77 1015.6
20260906050047 14 13 29.0 38.6 0.00 0.03 0.00 76 1015.6
20260906044546 15 13 27.4 40.2 0.00 0.03 0.00 75 1015.4
20260906043025 15 360 27.4 41.8 0.00 0.03 0.00 74 1015.1
20260906041523 15 13 33.8 46.7 0.00 0.03 0.00 73 1014.7
20260906040010 15 5 32.2 41.8 0.00 0.03 0.00 73 1015.0
20260906034502 15 315 27.4 41.8 0.00 0.03 0.00 72 1015.1
20260906033048 15 318 27.4 38.6 0.00 0.03 0.00 71 1015.1
20260906031543 15 5 24.1 38.6 0.00 0.03 0.00 70 1014.7
20260906030040 15 5 25.7 41.8 0.00 0.03 0.00 69 1014.3
20260906024547 16 309 30.6 46.7 0.00 0.03 0.00 68 1014.0
20260906023035 16 5 30.6 45.1 0.00 0.03 0.00 67 1014.0
20260906021533 16 360 27.4 40.2 0.00 0.03 0.00 66 1014.2
20260906020030 17 331 27.4 43.5 0.00 0.03 0.00 65 1014.1
20260906014538 17 360 30.6 41.8 0.00 0.03 0.00 62 1014.0
20260906013037 18 10 25.7 38.6 0.00 0.03 0.00 60 1014.0
20260906011521 19 22 30.6 41.8 0.00 0.03 0.00 56 1013.8
20260906010025 20 17 27.4 38.6 0.00 0.03 0.00 52 1013.7
20260906004519 21 349 29.0 40.2 0.00 0.03 0.00 47 1013.7
20260906003018 23 17 20.9 27.4 0.00 0.03 0.00 38 1013.8
20260906001522 23 5 17.7 32.2 0.00 0.03 0.00 36 1013.7
20260906000057 23 13 20.9 29.0 0.00 0.03 0.00 35 1013.8
20260905234604 23 40 19.3 27.4 0.00 0.03 0.00 35 1013.7
20260905233038 23 65 9.7 25.7 0.00 0.03 0.00 35 1013.7
20260905231540 23 19 12.9 33.8 0.00 0.03 0.00 34 1013.8
20260905230018 23 38 9.7 33.8 0.00 0.03 0.00 34 1013.8
20260905224519 24 48 12.9 27.4 0.00 0.03 0.00 34 1013.6
20260905223059 24 347 12.9 25.7 0.00 0.03 0.00 34 1013.6
20260905221615 24 46 12.9 24.1 0.00 0.03 0.00 34 1013.7
20260905220041 24 52 14.5 33.8 0.00 0.03 0.00 35 1013.7
20260905214539 24 55 4.8 41.8 0.00 0.03 0.00 35 1013.9
20260905213020 23 347 3.2 12.9 0.00 0.03 0.00 37 1014.1
20260905211532 23 17 16.1 29.0 0.00 0.03 0.00 36 1014.0
20260905210100 23 49 14.5 19.3 0.00 0.03 0.00 37 1014.2
20260905204557 23 20 11.3 22.5 0.00 0.03 0.00 37 1014.1
20260905203042 23 335 11.3 17.7 0.00 0.03 0.00 37 1014.2
20260905201539 23 25 14.5 22.5 0.00 0.03 0.00 37 1014.4
20260905200020 22 327 11.3 24.1 0.00 0.03 0.00 38 1014.4
20260905194517 22 330 16.1 27.4 0.00 0.03 0.00 38 1014.5